Location: Adaghas
(31.2259°N, 9.0496°W)
Time: 03:21:29
(UTC+00:00)

Milstar 3 Cent rocket - Pass Details

Date: 18 September 2020
Orbit: 707 x 5145 km, 28.3° (Epoch: 23 October)

Event Time Altitude Azimuth Distance (km) Brightness Sun altitude
Rises 19:25:08 0° 237° (WSW) 5,129 7.1 -11.0°
Reaches altitude 10° 19:29:31 10° 230° (SW) 3,514 6.0 -11.9°
Maximum altitude 19:36:33 36° 166° (SSE) 1,441 3.2 -13.4°
Enters shadow 19:39:34 20° 112° (ESE) 1,787 3.3 -14.0°
